Regional Weather Roundup
Issued by NWS Jackson, KY

Home | Current Version | Previous Version | Graphics & Text | Print | Product List | Glossary On
Versions: 1 2 3 4 5 6 7 8 9 10 11 12 13 14 15 16 17 18 19 20 21 22 23 24 25 26 27 28 29 30 31 32 33 34 35 36 37 38 39 40 41 42 43 44 45 46 47 48 49 50
000
ASUS43 KJKL 270711
RWRJKL

EAST KENTUCKY HOURLY WEATHER ROUNDUP
NATIONAL WEATHER SERVICE JACKSON KY
200 AM EST THU NOV 27 2014

NOTE: "FAIR" INDICATES FEW OR NO CLOUDS BELOW 12,000 FEET WITH
NO SIGNIFICANT WEATHER AND/OR OBSTRUCTIONS TO VISIBILITY.

* THESE REPORTS ARE NOT UNDER NWS QUALITY CONTROL AND MAY NOT
  REPORT WEATHER SUCH AS PRECIPITATION AND FOG.

KYZ079-080-083-085-087-088-110-112-115-119-120-270800
...EASTERN KENTUCKY...

CITY           SKY/WX    TMP DP  RH WIND       PRES   REMARKS
JACKSON        CLOUDY    36  27  69 NE3       29.98F
LONDON         LGT RAIN  36  32  85 N5        30.00R WCI  32
SOMERSET*      LGT SNOW  32  32 100 CALM      30.03S
MONTICELLO*    LGT SNOW  35  34  96 CALM      30.05R FOG
HARLAN APT*    CLOUDY    36  34  93 CALM      29.97S
HAZARD APT*    CLOUDY    36  30  80 CALM      29.98F
BLACK MTN*       N/A     28  28 100 NE1         N/A
PIKEVILLE APT* CLOUDY    36  32  87 N8        29.97F WCI  29
BIG SANDY*     CLOUDY    34  31  92 CALM      29.99S
MOREHEAD APT*  CLOUDY    32  28  86 CALM      30.03S
$$

KYZ035-036-041-042-044-050-067-078-099-270800
...CENTRAL KENTUCKY...

CITY           SKY/WX    TMP DP  RH WIND       PRES   REMARKS
MT STERLING*   CLOUDY    32  30  93 NE3       30.03S
FLEMING/MASON* CLOUDY    32  28  86 N5        30.04R WCI  27
DANVILLE*      DRIZZLE   36  32  87 NW5       30.02S WCI  32
RICHMOND*      CLOUDY    34  30  86 CALM      30.00S
LEXINGTON      CLOUDY    33  29  85 N7        30.03R WCI  27
FRANKFORT      CLOUDY    34  28  79 N3        30.04R
$$

KYZ091>093-OHZ055-061-077-WVZ005-015-034-035-042-270800
...SOUTHERN OHIO/WEST VIRGINIA...

CITY           SKY/WX    TMP DP  RH WIND       PRES   REMARKS
COVINGTON      CLOUDY    28  21  75 N6        30.06R WCI  22
COLUMBUS       CLOUDY    32  27  81 N7        30.04S WCI  26
DAYTON         PTCLDY    27  23  85 NW7       30.06S WCI  19
WILMINGTON     PTCLDY    26  22  84 N6        30.04R WCI  19
HUNTINGTON     CLOUDY    33  28  81 N5        30.01S WCI  29
CHARLESTON     CLOUDY    36  34  92 CALM      30.00F FOG
PINEVILLE*     CLOUDY    38  38 100 MISG      30.01F FOG
BECKLEY        CLOUDY    33  30  88 CALM      29.94S
BLUEFIELD      FOG       33  30  88 CALM      29.94F VSB 3/4
$$

VAZ002-007-008-TNZ017-027-036-066-071-270800
...SOUTHWEST VIRGINIA/EAST TENNESSEE...

CITY           SKY/WX    TMP DP  RH WIND       PRES   REMARKS
WISE*          CLOUDY    34  30  86 SW6       29.95S WCI  29
JONESVILLE*    LGT RAIN  36  32  87 CALM      30.00S
ABINGDON*      CLOUDY    38  32  81 NW3       29.96F
BRISTOL        LGT RAIN  38  33  82 CALM      29.98F
KNOXVILLE      LGT RAIN  38  35  89 W7        30.02R WCI  33
OAK RIDGE      CLOUDY    39  37  92 S3        30.02S
CROSSVILLE     MOCLDY    37  32  82 W14G23    30.00S WCI  28
NASHVILLE      CLOUDY    40  33  76 W5        30.10R
$$

...KEY TO REMARKS...
VSB - VISIBILITY IN MILES
WCI - WIND CHILL INDEX
HX  - HEAT INDEX

$$



USA.gov is the U.S. government's official web portal to all federal, state and local government web resources and services.